sat.trackr.live / text

‹ back to catalog

STARLINK-36254

NORAD 68338 · 2026-059T

PAYLOAD ACTIVE UNKNOWN

§ Identity

Operator
Country
US
Launch date
2026-03-22
Launch site
AFETR
Launch vehicle
Mass (kg)
RCS (m²)

Purposes: comms

External: N2YO · Heavens-Above · Gunter

§ Orbital elements

Epoch: 2026-09-19T23:23:26.339424Z

Period
93.85 min
Inclination
53.1582°
Eccentricity
0.0003518
Mean motion
15.34406117 rev/d
Perigee alt
460.3 km
Apogee alt
465.1 km
Semi-major
6,840.8 km
B*
6.3116e-4
RAAN
157.8494°
Arg perigee
98.0304°
Mean anomaly
262.1098°
Rev number
2,803

§ Raw data

STARLINK-362541 68338U 26059T   26262.97461041  .00021014  00000+0  63116-3 0  99972 68338  53.1582 157.8494 0003518  98.0304 262.1098 15.34406117 28036

JSON: /api/v1/satellites/68338 · /tle

For live sub-satellite position, see the globe view (requires WebGL).

§ Visibility from observer

Set your observer location to see the next 7 days of passes ≥ 10°. The values pass through the URL so the page stays shareable.

No JS? Fill the form by hand. The geolocation button needs JavaScript.